Weather History for Miles City, MT

Change the Weather History Date:

Friday, March 28, 2014

  Actual Average Record
Temperature  
Mean Temperature 34 °F 39 °F  
Max Temperature 40 °F 52 °F 80 °F (1986)
Min Temperature 27 °F 27 °F 0 °F (1937)
Degree Days  
Heating Degree Days 31 26  
Month to date heating degree days 964 867  
Since 1 July heating degree days 7003 6601  
Cooling Degree Days 0 0  
Month to date cooling degree days 0 0  
Year to date cooling degree days 0 0  
Moisture  
Dew Point 26 °F    
Average Humidity 76    
Maximum Humidity 92    
Minimum Humidity 59    
Precipitation  
Precipitation 0.08 in 0.02 in 0.76 in (2007)
Month to date precipitation 0.70 0.51  
Year to date precipitation 0.95 1.06  
Sea Level Pressure  
Sea Level Pressure 29.97 in    
Wind  
Wind Speed 9 mph (NE)    
Max Wind Speed 15 mph    
Max Gust Speed 17 mph    
Visibility 7 miles    
Events Snow    
T = Trace of Precipitation, MM = Missing Value Source: NWS Daily Summary

Daily Weather History Graph

Daily Weather History Graph

Search for Another Location

Airport:

Trip Planner

Search our weather history database for the weather conditions in past years. The results will help you decide how hot, cold, wet, or windy it might be!

Date:

Astronomy

Mar. 28, 2014 Rise Set
Actual Time 6:50 AM MDT 7:27 PM MDT
Civil Twilight 6:20 AM MDT 7:57 PM MDT
Nautical Twilight 5:44 AM MDT 8:33 PM MDT
Astronomical Twilight 5:07 AM MDT 9:11 PM MDT
Moon 5:31 AM MDT (3/28) 5:20 PM MDT (3/28)
Length of Visible Light 13h 36m
Length of Day
12h 36m
Waning Crescent, 6% of the Moon is Illuminated
Mar 28
Waning Crescent
Mar 30
New
Apr 7
First Quarter
Apr 15
Full
Apr 22
Last Quarter

Hourly Weather History & Observations

Time (MDT) Temp. Windchill Dew Point Humidity Pressure Visibility Wind Dir Wind Speed Gust Speed Precip Events Conditions
12:53 AM 35.1 °F 29.3 °F 23.0 °F 61% 29.85 in 10.0 mi South 6.9 mph - N/A   Overcast
1:53 AM 34.0 °F 27.2 °F 21.9 °F 61% 29.86 in 10.0 mi SSE 8.1 mph - N/A   Overcast
2:53 AM 32.0 °F 23.6 °F 24.1 °F 73% 29.87 in 4.0 mi SE 10.4 mph - 0.00 in Snow Light Snow
3:12 AM 32.0 °F 26.4 °F 25.0 °F 75% 29.83 in 3.0 mi SSE 5.8 mph - 0.00 in Snow Light Snow
3:21 AM 30.9 °F - 26.1 °F 82% 29.83 in 2.0 mi Calm Calm - 0.00 in Snow Light Snow
3:28 AM 30.9 °F - 26.1 °F 82% 29.83 in 1.5 mi Calm Calm - 0.00 in Snow Light Snow
3:39 AM 30.0 °F 26.5 °F 27.0 °F 88% 29.84 in 2.0 mi SE 3.5 mph - 0.00 in Snow Light Snow
3:46 AM 30.0 °F 25.2 °F 27.0 °F 88% 29.84 in 1.0 mi SE 4.6 mph - 0.00 in Snow Light Snow
3:53 AM 30.0 °F 25.2 °F 28.0 °F 92% 29.90 in 1.0 mi SE 4.6 mph - 0.01 in Snow Light Snow
4:02 AM 30.0 °F 26.5 °F 28.0 °F 92% 29.85 in 0.8 mi East 3.5 mph - 0.00 in Snow Light Snow
4:09 AM 28.9 °F 23.9 °F 28.0 °F 96% 29.85 in 0.8 mi NNE 4.6 mph - 0.01 in Snow Light Snow
4:18 AM 28.9 °F 22.8 °F 27.0 °F 92% 29.86 in 1.0 mi North 5.8 mph - 0.02 in Snow Light Snow
4:33 AM 28.9 °F 21.9 °F 27.0 °F 92% 29.87 in 0.8 mi North 6.9 mph - 0.03 in Snow Light Snow
4:53 AM 28.9 °F 20.4 °F 27.0 °F 92% 29.93 in 1.0 mi NNE 9.2 mph - 0.05 in Snow Light Snow
5:03 AM 28.9 °F 20.4 °F 27.0 °F 92% 29.88 in 1.0 mi NNE 9.2 mph - 0.01 in Snow Light Snow
5:29 AM 28.0 °F 18.6 °F 27.0 °F 96% 29.89 in 1.2 mi NNE 10.4 mph - 0.02 in Snow Light Snow
5:43 AM 28.0 °F 19.3 °F 27.0 °F 96% 29.90 in 2.5 mi NNE 9.2 mph - 0.02 in Snow Light Snow
5:50 AM 28.4 °F 19.1 °F 26.6 °F 93% 29.90 in 4.0 mi NNE 10.4 mph - 0.02 in Snow Light Snow
5:53 AM 28.0 °F 18.6 °F 27.0 °F 96% 29.96 in 4.0 mi NNE 10.4 mph - 0.02 in Snow Light Snow
6:08 AM 28.0 °F 18.6 °F 27.0 °F 96% 29.91 in 5.0 mi NNE 10.4 mph - 0.00 in   Overcast
6:48 AM 26.6 °F 15.7 °F 24.8 °F 93% 29.93 in 8.0 mi NNE 12.7 mph - 0.00 in   Overcast
6:49 AM 27.0 °F 16.1 °F 25.0 °F 92% 29.99 in 8.0 mi NNE 12.7 mph - 0.00 in   Overcast
7:42 AM 27.0 °F 19.5 °F 25.0 °F 92% 29.97 in 9.0 mi NNW 6.9 mph - N/A   Overcast
7:53 AM 27.0 °F 18.7 °F 25.0 °F 92% 30.04 in 9.0 mi NW 8.1 mph - N/A   Overcast
8:53 AM 27.0 °F 17.3 °F 24.1 °F 89% 30.06 in 10.0 mi NNW 10.4 mph - N/A   Overcast
9:04 AM 28.0 °F 19.3 °F 23.0 °F 81% 30.00 in 10.0 mi NNW 9.2 mph - N/A   Overcast
9:30 AM 28.0 °F 20.0 °F 24.1 °F 85% 30.01 in 10.0 mi NW 8.1 mph - N/A   Overcast
9:53 AM 28.0 °F 18.1 °F 24.1 °F 85% 30.09 in 9.0 mi NW 11.5 mph - N/A   Overcast
10:53 AM 28.0 °F 19.3 °F 24.1 °F 85% 30.13 in 4.0 mi WNW 9.2 mph - 0.00 in Snow Light Snow
11:01 AM 28.0 °F 18.6 °F 24.1 °F 85% 30.05 in 5.0 mi WNW 10.4 mph - 0.00 in Snow Light Snow
11:25 AM 28.9 °F 19.8 °F 24.1 °F 82% 30.05 in 10.0 mi WNW 10.4 mph - 0.00 in   Overcast
11:45 AM 30.0 °F 21.1 °F 25.0 °F 82% 30.05 in 10.0 mi West 10.4 mph - 0.00 in   Overcast
11:53 AM 30.0 °F 22.4 °F 25.0 °F 82% 30.12 in 10.0 mi West 8.1 mph - 0.00 in   Overcast
12:46 PM 30.9 °F 25.2 °F 25.0 °F 79% 30.05 in 10.0 mi Variable 5.8 mph - N/A   Overcast
12:53 PM 30.9 °F 24.3 °F 25.0 °F 79% 30.12 in 10.0 mi West 6.9 mph - N/A   Overcast
1:53 PM 34.0 °F 27.2 °F 27.0 °F 75% 30.12 in 10.0 mi West 8.1 mph - N/A   Overcast
2:53 PM 34.0 °F 27.2 °F 26.1 °F 73% 30.10 in 10.0 mi SSW 8.1 mph - N/A   Overcast
3:53 PM 37.0 °F 32.4 °F 27.0 °F 67% 30.10 in 10.0 mi SSW 5.8 mph - N/A   Mostly Cloudy
4:13 PM 37.9 °F - 27.0 °F 65% 30.02 in 10.0 mi Calm Calm - N/A   Scattered Clouds
4:53 PM 39.0 °F 34.0 °F 27.0 °F 62% 30.08 in 10.0 mi South 6.9 mph - N/A   Clear
5:53 PM 39.0 °F 35.7 °F 27.0 °F 62% 30.06 in 10.0 mi SSE 4.6 mph - N/A   Clear
6:53 PM 39.0 °F 32.8 °F 28.9 °F 67% 30.05 in 10.0 mi ESE 9.2 mph - N/A   Clear
7:53 PM 36.0 °F 28.5 °F 28.0 °F 73% 30.04 in 10.0 mi ESE 10.4 mph - N/A   Clear
8:53 PM 35.1 °F 28.6 °F 28.0 °F 76% 30.03 in 10.0 mi SE 8.1 mph - N/A   Clear
9:53 PM 34.0 °F 26.0 °F 28.0 °F 79% 30.02 in 10.0 mi SSE 10.4 mph - N/A   Clear
10:53 PM 33.1 °F 23.9 °F 28.0 °F 82% 29.99 in 10.0 mi SSE 12.7 mph - N/A   Clear
11:53 PM 34.0 °F 25.5 °F 28.0 °F 79% 29.97 in 10.0 mi SSE 11.5 mph - N/A   Clear